QPF
0.03 0.04 0.06 0.07 0.09 0.12 0.11 0.10 0.08 0.08 0.07 0.07 0.09 0.12 0.10 0.08 0.07 0.08 0.08 0.07 0.07 0.07 0.05 0.04 0.04 0.03 0.03 0.02 0.02 0.02 0.02 0.03 0.03 0.04 0.03 0.02 0.02 0.02 0.02 0.02 0.02 0.02 0.01
0.03 0.05 0.07 0.06 0.07 0.12 0.12 0.13 0.14 0.10 0.08 0.09 0.07 0.08 0.07 0.06 0.06 0.06 0.06 0.07 0.08 0.09 0.08 0.06 0.05 0.04 0.04 0.04 0.04 0.05 0.05 0.06 0.06 0.07 0.04 0.03 0.03 0.02 0.03 0.03 0.01 0.01 0.01
0.03 0.05 0.06 0.06 0.06 0.08 0.09 0.10 0.14 0.14 0.11 0.11 0.10 0.08 0.07 0.05 0.05 0.05 0.06 0.05 0.06 0.07 0.08 0.09 0.09 0.09 0.08 0.08 0.08 0.07 0.06 0.05 0.06 0.07 0.06 0.05 0.04 0.03 0.03 0.02 0.01 0.01 0.01
0.03 0.04 0.05 0.06 0.07 0.07 0.08 0.07 0.10 0.13 0.14 0.13 0.12 0.10 0.09 0.08 0.08 0.09 0.09 0.09 0.09 0.09 0.09 0.09 0.09 0.09 0.08 0.07 0.07 0.06 0.06 0.07 0.07 0.07 0.07 0.06 0.04 0.03 0.03 0.03 0.02 0.01 0.01
0.04 0.05 0.06 0.07 0.09 0.10 0.10 0.07 0.08 0.09 0.12 0.13 0.13 0.12 0.12 0.11 0.11 0.12 0.12 0.12 0.11 0.11 0.10 0.10 0.09 0.09 0.10 0.09 0.09 0.10 0.09 0.10 0.09 0.09 0.08 0.06 0.05 0.05 0.04 0.03 0.03 0.02 0.02
0.10 0.10 0.08 0.10 0.10 0.10 0.09 0.09 0.09 0.09 0.10 0.11 0.11 0.11 0.12 0.13 0.14 0.14 0.15 0.16 0.15 0.13 0.10 0.08 0.07 0.06 0.06 0.06 0.06 0.06 0.07 0.07 0.07 0.06 0.06 0.06 0.05 0.04 0.04 0.03 0.03 0.03 0.03
0.06 0.09 0.10 0.11 0.09 0.08 0.07 0.08 0.08 0.08 0.09 0.10 0.11 0.11 0.12 0.14 0.16 0.16 0.16 0.15 0.15 0.14 0.13 0.12 0.10 0.07 0.05 0.05 0.05 0.04 0.04 0.04 0.04 0.04 0.05 0.05 0.05 0.04 0.03 0.02 0.02 0.02 0.03
0.02 0.05 0.10 0.12 0.09 0.07 0.06 0.07 0.07 0.08 0.08 0.09 0.10 0.08 0.09 0.10 0.12 0.11 0.12 0.12 0.13 0.13 0.11 0.10 0.09 0.07 0.05 0.05 0.05 0.05 0.04 0.04 0.04 0.03 0.03 0.03 0.02 0.02 0.02 0.02 0.02 0.02 0.02
0.04 0.08 0.09 0.08 0.09 0.11 0.10 0.09 0.09 0.09 0.08 0.09 0.09 0.09 0.08 0.08 0.08 0.07 0.06 0.06 0.07 0.08 0.07 0.07 0.07 0.06 0.05 0.04 0.04 0.04 0.04 0.04 0.04 0.04 0.04 0.03 0.03 0.03 0.02 0.02 0.02 0.02 0.02
0.04 0.08 0.09 0.08 0.07 0.08 0.10 0.11 0.11 0.11 0.09 0.09 0.11 0.12 0.11 0.09 0.09 0.08 0.07 0.07 0.07 0.07 0.07 0.07 0.07 0.06 0.05 0.04 0.04 0.04 0.05 0.05 0.05 0.04 0.04 0.04 0.03 0.02 0.02 0.02 0.02 0.02 0.02
0.04 0.04 0.05 0.06 0.06 0.08 0.09 0.10 0.11 0.13 0.14 0.14 0.13 0.12 0.11 0.12 0.13 0.12 0.09 0.06 0.06 0.05 0.05 0.04 0.04 0.04 0.03 0.02 0.02 0.02 0.03 0.03 0.03 0.02 0.02 0.03 0.03 0.02 0.01 0.01 0.01 0.01 0.01
0.05 0.05 0.05 0.07 0.08 0.08 0.09 0.10 0.12 0.14 0.17 0.18 0.15 0.11 0.09 0.10 0.10 0.09 0.07 0.05 0.04 0.03 0.02 0.02 0.01 0.01 0.00 0.00 0.00 0.00 0.00 0.00 0.00 0.00 0.00 0.00 0.00 0.00 0.00 0.00 0.00 0.00 0.00
0.05 0.06 0.08 0.11 0.11 0.11 0.11 0.13 0.16 0.14 0.12 0.13 0.13 0.12 0.10 0.07 0.06 0.06 0.05 0.04 0.04 0.02 0.02 0.02 0.02 0.01 0.01 0.01 0.01 0.00 0.00 0.00 0.00 0.00 0.00 0.00 0.00 0.00 0.00 0.00 0.00 0.00 0.00
0.06 0.07 0.07 0.08 0.10 0.10 0.10 0.11 0.12 0.11 0.12 0.13 0.14 0.13 0.11 0.09 0.06 0.05 0.04 0.04 0.04 0.04 0.04 0.04 0.04 0.03 0.02 0.02 0.01 0.01 0.01 0.00 0.00 0.00 0.00 0.00 0.00 0.00 0.00 0.00 0.00 0.00 0.00
0.08 0.08 0.09 0.10 0.11 0.11 0.11 0.12 0.12 0.12 0.13 0.13 0.13 0.13 0.12 0.12 0.11 0.10 0.09 0.10 0.09 0.08 0.07 0.05 0.04 0.03 0.03 0.02 0.02 0.01 0.01 0.01 0.01 0.00 0.00 0.00 0.00 0.00 0.00 0.00 0.00 0.00 0.00
0.11 0.10 0.10 0.11 0.11 0.10 0.10 0.11 0.13 0.13 0.15 0.15 0.15 0.14 0.14 0.13 0.13 0.13 0.12 0.11 0.10 0.07 0.05 0.04 0.03 0.03 0.02 0.02 0.01 0.01 0.01 0.00 0.00 0.00 0.00 0.00 0.00 0.00 0.00 0.00 0.00 0.00 0.00
0.13 0.12 0.10 0.10 0.11 0.12 0.12 0.11 0.12 0.13 0.13 0.13 0.12 0.11 0.10 0.10 0.10 0.09 0.08 0.06 0.05 0.03 0.02 0.02 0.01 0.01 0.01 0.00 0.00 0.00 0.00 0.00 0.00 0.00 0.00 0.00 0.00 0.00 0.00 0.00 0.00 0.00 0.00
0.13 0.14 0.14 0.12 0.11 0.10 0.10 0.10 0.10 0.09 0.08 0.08 0.08 0.07 0.07 0.07 0.07 0.06 0.04 0.03 0.02 0.01 0.01 0.01 0.00 0.00 0.00 0.00 0.00 0.00 0.00 0.00 0.00 0.00 0.00 0.00 0.00 0.00 0.00 0.00 0.00 0.00 0.00
0.07 0.08 0.09 0.10 0.10 0.09 0.08 0.07 0.06 0.05 0.05 0.05 0.05 0.05 0.04 0.04 0.03 0.02 0.01 0.01 0.00 0.00 0.00 0.00 0.00 0.00 0.00 0.00 0.00 0.00 0.00 0.00 0.00 0.00 0.00 0.00 0.00 0.00 0.00 0.00 0.00 0.00 0.00
0.06 0.07 0.07 0.07 0.07 0.06 0.05 0.05 0.05 0.04 0.04 0.04 0.03 0.02 0.02 0.01 0.01 0.01 0.00 0.00 0.00 0.00 0.00 0.00 0.00 0.00 0.00 0.00 0.00 0.00 0.00 0.00 0.00 0.00 0.00 0.00 0.00 0.00 0.00 0.00 0.00 0.00 0.00
0.03 0.03 0.03 0.03 0.03 0.03 0.04 0.04 0.04 0.04 0.03 0.02 0.01 0.01 0.00 0.00 0.00 0.00 0.00 0.00 0.00 0.00 0.00 0.00 0.00 0.00 0.00 0.00 0.00 0.00 0.00 0.00 0.00 0.00 0.00 0.00 0.00 0.00 0.00 0.00 0.00 0.00 0.00
0.01 0.01 0.02 0.02 0.02 0.02 0.02 0.02 0.02 0.02 0.01 0.01 0.00 0.00 0.00 0.00 0.00 0.00 0.00 0.00 0.00 0.00 0.00 0.00 0.00 0.00 0.00 0.00 0.00 0.00 0.00 0.00 0.00 0.00 0.00 0.00 0.00 0.00 0.00 0.00 0.00 0.00 0.00
0.01 0.01 0.01 0.01 0.01 0.01 0.01 0.01 0.01 0.00 0.00 0.00 0.00 0.00 0.00 0.00 0.00 0.00 0.00 0.00 0.00 0.00 0.00 0.00 0.00 0.00 0.00 0.00 0.00 0.00 0.00 0.00 0.00 0.00 0.00 0.00 0.00 0.00 0.00 0.00 0.00 0.00 0.00
0.01 0.01 0.01 0.00 0.00 0.00 0.00 0.00 0.00 0.00 0.00 0.00 0.00 0.00 0.00 0.00 0.00 0.00 0.00 0.00 0.00 0.00 0.00 0.00 0.00 0.00 0.00 0.00 0.00 0.00 0.00 0.00 0.00 0.00 0.00 0.00 0.00 0.00 0.00 0.00 0.00 0.00 0.00
0.01 0.01 0.01 0.00 0.00 0.00 0.00 0.00 0.00 0.00 0.00 0.00 0.00 0.00 0.00 0.00 0.00 0.00 0.00 0.00 0.00 0.00 0.00 0.00 0.00 0.00 0.00 0.00 0.00 0.00 0.00 0.00 0.00 0.00 0.00 0.00 0.00 0.00 0.00 0.00 0.00 0.00 0.00
0.00 0.00 0.00 0.00 0.00 0.00 0.00 0.00 0.00 0.00 0.00 0.00 0.00 0.00 0.00 0.00 0.00 0.00 0.00 0.00 0.00 0.00 0.00 0.00 0.00 0.00 0.00 0.00 0.00 0.00 0.00 0.00 0.00 0.00 0.00 0.00 0.00 0.00 0.00 0.00 0.00 0.00 0.00
MSLP
1011.28 1011.45 1011.68 1011.94 1012.24 1012.54 1012.86 1013.18 1013.50 1013.82 1014.15 1014.48 1014.82 1015.18 1015.53 1015.90 1016.26 1016.62 1016.97 1017.31 1017.62 1017.90 1018.15 1018.36 1018.54 1018.68 1018.79 1018.88 1018.96 1019.04 1019.14 1019.24 1019.37 1019.51 1019.66 1019.83 1020.00 1020.17 1020.34 1020.51 1020.69 1020.87 1021.05
1011.07 1011.21 1011.40 1011.65 1011.94 1012.26 1012.60 1012.94 1013.29 1013.64 1013.98 1014.33 1014.67 1015.01 1015.37 1015.73 1016.10 1016.48 1016.85 1017.22 1017.56 1017.87 1018.13 1018.35 1018.52 1018.65 1018.76 1018.84 1018.93 1019.03 1019.16 1019.32 1019.50 1019.71 1019.93 1020.15 1020.35 1020.54 1020.70 1020.85 1020.98 1021.10 1021.22
1010.96 1011.07 1011.24 1011.47 1011.76 1012.08 1012.44 1012.81 1013.19 1013.56 1013.92 1014.27 1014.61 1014.96 1015.31 1015.68 1016.06 1016.45 1016.86 1017.25 1017.63 1017.97 1018.27 1018.51 1018.70 1018.85 1018.96 1019.06 1019.16 1019.29 1019.45 1019.65 1019.89 1020.14 1020.41 1020.65 1020.87 1021.05 1021.19 1021.28 1021.33 1021.37 1021.41
1010.95 1011.05 1011.21 1011.43 1011.71 1012.04 1012.41 1012.81 1013.21 1013.60 1013.98 1014.34 1014.70 1015.05 1015.41 1015.78 1016.18 1016.60 1017.03 1017.47 1017.89 1018.28 1018.62 1018.90 1019.13 1019.31 1019.45 1019.58 1019.71 1019.87 1020.06 1020.29 1020.56 1020.84 1021.12 1021.37 1021.57 1021.72 1021.79 1021.80 1021.77 1021.70 1021.64
1011.03 1011.12 1011.28 1011.49 1011.78 1012.12 1012.51 1012.92 1013.35 1013.77 1014.17 1014.56 1014.94 1015.31 1015.68 1016.08 1016.50 1016.94 1017.41 1017.89 1018.36 1018.81 1019.21 1019.55 1019.83 1020.06 1020.25 1020.41 1020.58 1020.76 1020.97 1021.22 1021.49 1021.78 1022.05 1022.27 1022.43 1022.52 1022.51 1022.43 1022.29 1022.12 1021.93
1011.13 1011.24 1011.40 1011.62 1011.92 1012.28 1012.69 1013.13 1013.59 1014.05 1014.49 1014.92 1015.33 1015.73 1016.13 1016.55 1017.00 1017.48 1017.99 1018.52 1019.04 1019.55 1020.01 1020.42 1020.77 1021.05 1021.29 1021.50 1021.69 1021.89 1022.12 1022.36 1022.62 1022.88 1023.11 1023.29 1023.39 1023.40 1023.31 1023.14 1022.89 1022.61 1022.32
1011.21 1011.33 1011.51 1011.76 1012.08 1012.47 1012.91 1013.40 1013.90 1014.41 1014.91 1015.38 1015.84 1016.29 1016.74 1017.20 1017.69 1018.20 1018.75 1019.32 1019.90 1020.46 1020.98 1021.45 1021.85 1022.19 1022.48 1022.72 1022.93 1023.14 1023.36 1023.59 1023.81 1024.03 1024.21 1024.33 1024.36 1024.30 1024.14 1023.88 1023.56 1023.18 1022.81
1011.19 1011.33 1011.54 1011.83 1012.19 1012.63 1013.13 1013.68 1014.25 1014.82 1015.39 1015.94 1016.46 1016.97 1017.47 1017.98 1018.51 1019.07 1019.65 1020.26 1020.87 1021.47 1022.04 1022.55 1022.99 1023.37 1023.68 1023.94 1024.16 1024.37 1024.56 1024.75 1024.93 1025.09 1025.22 1025.27 1025.25 1025.13 1024.92 1024.61 1024.23 1023.80 1023.36
1011.04 1011.21 1011.46 1011.81 1012.24 1012.75 1013.32 1013.95 1014.61 1015.27 1015.93 1016.56 1017.16 1017.74 1018.31 1018.87 1019.44 1020.03 1020.64 1021.27 1021.90 1022.52 1023.10 1023.62 1024.08 1024.47 1024.78 1025.04 1025.25 1025.43 1025.59 1025.73 1025.86 1025.97 1026.04 1026.05 1025.98 1025.83 1025.59 1025.26 1024.86 1024.41 1023.94
1010.77 1010.99 1011.30 1011.71 1012.23 1012.83 1013.51 1014.23 1014.99 1015.76 1016.52 1017.24 1017.93 1018.59 1019.22 1019.83 1020.44 1021.06 1021.68 1022.31 1022.93 1023.53 1024.09 1024.60 1025.05 1025.41 1025.71 1025.93 1026.11 1026.25 1026.36 1026.46 1026.54 1026.60 1026.62 1026.60 1026.51 1026.34 1026.10 1025.78 1025.39 1024.95 1024.49
1010.46 1010.73 1011.11 1011.62 1012.23 1012.94 1013.73 1014.57 1015.45 1016.32 1017.18 1018.00 1018.78 1019.51 1020.20 1020.86 1021.49 1022.11 1022.73 1023.33 1023.92 1024.47 1024.99 1025.45 1025.84 1026.16 1026.41 1026.59 1026.72 1026.81 1026.87 1026.92 1026.96 1026.98 1026.97 1026.92 1026.83 1026.67 1026.44 1026.14 1025.79 1025.38 1024.94
1010.21 1010.55 1011.02 1011.62 1012.34 1013.17 1014.07 1015.03 1016.01 1016.99 1017.94 1018.85 1019.70 1020.49 1021.22 1021.91 1022.55 1023.15 1023.74 1024.29 1024.82 1025.31 1025.75 1026.13 1026.45 1026.70 1026.89 1027.01 1027.08 1027.13 1027.15 1027.15 1027.15 1027.14 1027.11 1027.06 1026.96 1026.82 1026.61 1026.35 1026.03 1025.66 1025.26
1010.17 1010.58 1011.13 1011.84 1012.66 1013.59 1014.60 1015.65 1016.73 1017.79 1018.81 1019.78 1020.68 1021.51 1022.26 1022.94 1023.56 1024.14 1024.67 1025.16 1025.60 1026.01 1026.36 1026.65 1026.88 1027.05 1027.17 1027.23 1027.26 1027.26 1027.24 1027.22 1027.20 1027.17 1027.13 1027.07 1026.98 1026.85 1026.66 1026.42 1026.13 1025.80 1025.42
1010.45 1010.92 1011.56 1012.35 1013.26 1014.27 1015.35 1016.47 1017.60 1018.71 1019.77 1020.76 1021.67 1022.50 1023.24 1023.90 1024.48 1025.00 1025.46 1025.87 1026.23 1026.53 1026.79 1026.99 1027.14 1027.24 1027.29 1027.30 1027.30 1027.27 1027.24 1027.21 1027.17 1027.14 1027.09 1027.03 1026.94 1026.81 1026.63 1026.41 1026.13 1025.81 1025.44
1011.10 1011.64 1012.34 1013.18 1014.15 1015.20 1016.32 1017.46 1018.60 1019.71 1020.76 1021.73 1022.62 1023.41 1024.10 1024.71 1025.23 1025.68 1026.06 1026.39 1026.65 1026.87 1027.03 1027.15 1027.23 1027.28 1027.29 1027.28 1027.25 1027.22 1027.20 1027.17 1027.15 1027.12 1027.08 1027.01 1026.91 1026.77 1026.59 1026.35 1026.06 1025.73 1025.36
1012.12 1012.70 1013.43 1014.29 1015.27 1016.32 1017.42 1018.53 1019.63 1020.69 1021.69 1022.60 1023.42 1024.15 1024.78 1025.31 1025.76 1026.13 1026.43 1026.67 1026.85 1026.99 1027.09 1027.15 1027.18 1027.20 1027.20 1027.19 1027.18 1027.17 1027.17 1027.17 1027.17 1027.16 1027.12 1027.05 1026.94 1026.78 1026.57 1026.30 1025.99 1025.63 1025.24
1013.39 1013.98 1014.70 1015.55 1016.49 1017.50 1018.53 1019.58 1020.60 1021.57 1022.47 1023.30 1024.03 1024.67 1025.21 1025.66 1026.04 1026.33 1026.56 1026.73 1026.85 1026.93 1026.98 1027.01 1027.03 1027.04 1027.06 1027.08 1027.10 1027.14 1027.19 1027.23 1027.26 1027.27 1027.25 1027.18 1027.05 1026.86 1026.62 1026.31 1025.95 1025.56 1025.13
1014.75 1015.32 1016.01 1016.80 1017.67 1018.59 1019.54 1020.48 1021.38 1022.25 1023.04 1023.76 1024.39 1024.94 1025.40 1025.77 1026.07 1026.30 1026.48 1026.60 1026.68 1026.73 1026.76 1026.79 1026.82 1026.86 1026.91 1026.98 1027.06 1027.16 1027.26 1027.36 1027.43 1027.47 1027.45 1027.38 1027.23 1027.02 1026.73 1026.39 1025.99 1025.55 1025.08
1016.04 1016.56 1017.19 1017.90 1018.68 1019.49 1020.32 1021.14 1021.94 1022.68 1023.37 1023.99 1024.53 1024.99 1025.38 1025.69 1025.93 1026.12 1026.25 1026.35 1026.41 1026.46 1026.50 1026.55 1026.61 1026.69 1026.80 1026.93 1027.08 1027.24 1027.40 1027.55 1027.66 1027.72 1027.72 1027.64 1027.47 1027.23 1026.91 1026.53 1026.09 1025.61 1025.11
1017.11 1017.57 1018.13 1018.75 1019.42 1020.13 1020.85 1021.56 1022.24 1022.89 1023.48 1024.02 1024.49 1024.89 1025.22 1025.49 1025.71 1025.87 1025.99 1026.08 1026.15 1026.21 1026.28 1026.36 1026.47 1026.60 1026.77 1026.96 1027.17 1027.39 1027.61 1027.79 1027.93 1028.01 1028.01 1027.92 1027.74 1027.48 1027.13 1026.71 1026.24 1025.74 1025.21
1017.92 1018.32 1018.79 1019.33 1019.90 1020.52 1021.14 1021.75 1022.35 1022.92 1023.45 1023.93 1024.35 1024.72 1025.03 1025.28 1025.49 1025.65 1025.78 1025.88 1025.97 1026.06 1026.16 1026.29 1026.44 1026.62 1026.84 1027.09 1027.35 1027.61 1027.86 1028.07 1028.22 1028.30 1028.30 1028.19 1028.00 1027.71 1027.34 1026.90 1026.41 1025.89 1025.34
1018.48 1018.82 1019.22 1019.68 1020.19 1020.72 1021.27 1021.82 1022.36 1022.88 1023.37 1023.82 1024.23 1024.58 1024.89 1025.14 1025.36 1025.53 1025.68 1025.80 1025.92 1026.04 1026.18 1026.34 1026.54 1026.76 1027.02 1027.30 1027.59 1027.88 1028.13 1028.35 1028.50 1028.57 1028.54 1028.42 1028.20 1027.89 1027.50 1027.04 1026.54 1026.02 1025.47
1018.88 1019.17 1019.53 1019.93 1020.38 1020.86 1021.36 1021.87 1022.38 1022.87 1023.34 1023.78 1024.18 1024.54 1024.85 1025.12 1025.35 1025.54 1025.71 1025.86 1026.00 1026.15 1026.32 1026.51 1026.73 1026.98 1027.26 1027.56 1027.86 1028.14 1028.39 1028.59 1028.72 1028.76 1028.70 1028.55 1028.30 1027.96 1027.56 1027.09 1026.58 1026.05 1025.51
1019.25 1019.51 1019.83 1020.19 1020.60 1021.04 1021.51 1022.00 1022.48 1022.96 1023.42 1023.85 1024.25 1024.61 1024.92 1025.20 1025.44 1025.64 1025.82 1025.99 1026.15 1026.31 1026.50 1026.71 1026.94 1027.21 1027.49 1027.78 1028.07 1028.34 1028.57 1028.74 1028.83 1028.84 1028.74 1028.55 1028.27 1027.91 1027.48 1027.00 1026.49 1025.95 1025.42
1019.68 1019.93 1020.22 1020.56 1020.93 1021.35 1021.79 1022.24 1022.70 1023.15 1023.59 1024.01 1024.39 1024.74 1025.05 1025.32 1025.56 1025.76 1025.94 1026.11 1026.27 1026.45 1026.64 1026.85 1027.08 1027.34 1027.62 1027.90 1028.17 1028.41 1028.61 1028.74 1028.79 1028.76 1028.63 1028.40 1028.08 1027.69 1027.24 1026.74 1026.21 1025.68 1025.14
1020.21 1020.45 1020.73 1021.04 1021.39 1021.76 1022.16 1022.58 1023.00 1023.41 1023.82 1024.20 1024.55 1024.87 1025.15 1025.40 1025.61 1025.80 1025.97 1026.12 1026.28 1026.45 1026.63 1026.83 1027.06 1027.30 1027.56 1027.82 1028.07 1028.28 1028.44 1028.54 1028.56 1028.49 1028.33 1028.07 1027.72 1027.30 1026.83 1026.31 1025.76 1025.21 1024.66
Thickness
5745 5743 5740 5737 5735 5732 5730 5729 5728 5726 5724 5722 5722 5721 5719 5719 5718 5716 5717 5715 5714 5713 5713 5712 5710 5711 5712 5712 5712 5711 5710 5708 5702 5702 5703 5699 5696 5695 5693 5691 5690 5687 5683
5744 5741 5738 5735 5732 5730 5728 5727 5725 5723 5722 5720 5719 5717 5716 5715 5715 5714 5712 5711 5710 5708 5708 5706 5705 5705 5703 5704 5703 5703 5702 5700 5697 5693 5692 5690 5686 5684 5682 5681 5681 5680 5676
5742 5738 5735 5732 5729 5727 5725 5724 5722 5720 5718 5716 5715 5713 5712 5711 5710 5709 5708 5706 5704 5703 5701 5699 5698 5697 5695 5695 5694 5694 5693 5693 5691 5687 5682 5679 5677 5675 5672 5671 5670 5666 5666
5739 5735 5731 5729 5727 5725 5722 5721 5718 5716 5714 5712 5711 5709 5708 5706 5704 5703 5701 5698 5696 5694 5693 5691 5689 5688 5686 5684 5683 5682 5681 5680 5678 5676 5672 5668 5665 5662 5660 5659 5658 5656 5654
5735 5731 5728 5726 5724 5721 5719 5716 5714 5712 5710 5707 5706 5704 5702 5700 5699 5697 5694 5691 5687 5684 5681 5678 5676 5674 5672 5672 5672 5670 5669 5667 5665 5662 5658 5655 5651 5648 5646 5646 5644 5643 5642
5732 5728 5726 5723 5720 5716 5714 5711 5708 5706 5703 5701 5699 5697 5696 5694 5690 5687 5685 5682 5678 5674 5669 5666 5663 5660 5658 5656 5654 5653 5653 5652 5650 5647 5644 5639 5634 5633 5631 5631 5630 5629 5627
5727 5725 5722 5719 5715 5711 5708 5705 5701 5698 5696 5693 5691 5689 5686 5682 5679 5677 5674 5672 5667 5663 5659 5655 5653 5648 5646 5644 5641 5639 5636 5633 5632 5630 5627 5622 5619 5617 5615 5616 5613 5611 5608
5722 5719 5716 5712 5708 5704 5700 5696 5693 5691 5687 5684 5681 5679 5675 5670 5668 5666 5663 5661 5656 5651 5647 5643 5641 5637 5634 5632 5629 5625 5621 5617 5616 5614 5610 5605 5602 5599 5598 5598 5596 5596 5595
5715 5713 5710 5706 5701 5697 5692 5688 5685 5682 5678 5674 5670 5667 5663 5658 5656 5654 5653 5649 5644 5638 5634 5630 5628 5624 5619 5618 5616 5611 5607 5602 5597 5594 5590 5587 5584 5582 5580 5582 5581 5582 5582
5709 5707 5704 5700 5696 5691 5686 5681 5676 5673 5668 5664 5659 5656 5652 5647 5643 5642 5641 5639 5633 5627 5621 5616 5612 5609 5606 5604 5603 5598 5593 5589 5585 5582 5577 5574 5571 5568 5565 5563 5563 5562 5562
5703 5699 5695 5691 5687 5683 5678 5673 5668 5663 5658 5652 5648 5643 5638 5635 5631 5629 5628 5627 5622 5616 5611 5604 5597 5594 5591 5589 5587 5583 5577 5575 5572 5569 5566 5562 5558 5554 5550 5545 5541 5539 5538
5693 5689 5685 5681 5678 5673 5668 5663 5658 5653 5647 5640 5636 5630 5625 5620 5617 5615 5613 5612 5609 5604 5598 5591 5584 5580 5576 5573 5570 5565 5562 5560 5560 5556 5552 5547 5542 5537 5531 5527 5522 5517 5513
5681 5677 5673 5668 5664 5660 5656 5651 5646 5642 5638 5632 5626 5620 5614 5608 5603 5601 5598 5596 5593 5589 5581 5574 5569 5565 5562 5558 5553 5550 5549 5548 5544 5540 5535 5530 5524 5518 5514 5511 5507 5502 5498
5669 5665 5660 5655 5649 5645 5642 5639 5636 5631 5627 5621 5616 5610 5603 5598 5593 5590 5586 5581 5577 5573 5567 5560 5556 5553 5549 5544 5540 5538 5534 5529 5525 5521 5516 5511 5507 5503 5500 5494 5491 5487 5484
5657 5652 5647 5642 5637 5630 5626 5621 5619 5614 5614 5611 5605 5600 5595 5588 5580 5577 5576 5572 5568 5562 5556 5553 5549 5544 5540 5534 5529 5524 5519 5515 5510 5504 5500 5496 5491 5486 5482 5477 5471 5468 5466
5646 5641 5636 5630 5624 5618 5612 5603 5597 5596 5594 5592 5589 5586 5578 5573 5567 5563 5559 5556 5552 5548 5546 5543 5538 5533 5528 5523 5518 5512 5506 5500 5494 5489 5485 5480 5475 5470 5465 5460 5455 5450 5447
5635 5630 5624 5619 5613 5608 5603 5597 5590 5580 5577 5574 5571 5568 5564 5558 5554 5550 5546 5542 5538 5536 5536 5531 5526 5520 5515 5510 5505 5499 5493 5486 5480 5476 5470 5465 5459 5454 5450 5445 5440 5436 5432
5622 5617 5613 5608 5603 5599 5594 5589 5585 5580 5572 5562 5555 5552 5549 5545 5541 5537 5534 5531 5530 5527 5525 5520 5515 5509 5503 5498 5492 5487 5481 5475 5469 5463 5458 5452 5446 5442 5437 5433 5429 5423 5419
5611 5607 5602 5598 5594 5590 5585 5580 5576 5571 5565 5557 5549 5541 5536 5533 5529 5527 5525 5527 5524 5519 5514 5509 5503 5498 5492 5486 5480 5474 5469 5463 5456 5452 5447 5440 5436 5431 5427 5422 5418 5412 5408
5599 5595 5592 5589 5585 5581 5576 5572 5567 5562 5557 5551 5546 5539 5532 5529 5526 5522 5520 5518 5514 5510 5504 5499 5493 5487 5481 5476 5470 5465 5460 5454 5448 5444 5438 5432 5427 5423 5418 5413 5410 5406 5403
5590 5585 5582 5581 5578 5574 5569 5564 5560 5555 5550 5545 5539 5531 5526 5527 5522 5517 5513 5509 5505 5501 5495 5490 5485 5479 5473 5467 5462 5456 5452 5447 5440 5435 5430 5425 5420 5415 5411 5407 5403 5400 5397
5583 5580 5577 5573 5568 5565 5561 5557 5552 5548 5543 5537 5530 5522 5516 5519 5516 5511 5506 5501 5496 5491 5486 5481 5478 5472 5465 5460 5454 5450 5445 5440 5433 5428 5423 5418 5414 5410 5406 5402 5399 5395 5393
5577 5573 5569 5564 5560 5553 5553 5550 5545 5541 5536 5531 5525 5520 5515 5512 5508 5503 5498 5493 5488 5483 5478 5473 5469 5464 5458 5453 5448 5442 5437 5432 5426 5421 5417 5413 5410 5406 5402 5399 5395 5393 5390
5569 5566 5562 5557 5553 5550 5547 5542 5538 5534 5529 5524 5519 5515 5510 5504 5501 5495 5491 5486 5481 5476 5472 5467 5462 5457 5451 5447 5442 5438 5432 5425 5419 5416 5411 5408 5405 5402 5399 5396 5393 5390 5387
5562 5559 5555 5551 5547 5543 5540 5536 5531 5527 5522 5518 5513 5508 5503 5498 5494 5489 5484 5479 5475 5470 5466 5461 5457 5453 5448 5443 5438 5433 5426 5420 5414 5410 5406 5405 5403 5400 5397 5394 5392 5389 5386
5555 5552 5548 5544 5540 5537 5533 5529 5524 5519 5515 5510 5506 5501 5497 5492 5488 5483 5479 5474 5470 5466 5461 5458 5453 5449 5444 5440 5435 5429 5422 5417 5412 5407 5403 5402 5401 5399 5396 5393 5391 5389 5387